Location: Newark
(55.4390°N, 25.0170°E)
Time: 05:06:43
(UTC+00:00)

Envisat - Visible Passes

Search period start: 25 September 2022 00:00
Search period end: 05 October 2022 00:00
Orbit: 764 x 765 km, 98.2° (Epoch: 24 September)

Date Brightness Start Highest point End Pass type
(mag) Time Alt. Az. Time Alt. Az. Time Alt. Az.
25 Sep 4.4 02:16:03 10° NNE 02:20:51 40° E 02:25:36 10° SSE visible
26 Sep 5.4 01:39:36 10° NE 01:43:31 22° E 01:47:25 10° SE visible
26 Sep 3.0 03:17:59 10° NNE 03:23:05 74° WNW 03:28:09 10° SSW visible
27 Sep 5.9 01:04:15 10° ENE 01:05:59 12° E 01:07:43 10° E visible
27 Sep 3.6 02:41:02 10° NNE 02:46:06 61° ESE 02:51:07 10° S visible
28 Sep 4.7 02:04:18 10° NNE 02:08:54 33° E 02:13:28 10° SSE visible
29 Sep 5.6 01:28:02 10° NE 01:31:31 18° E 01:34:58 10° SE visible
29 Sep 3.0 03:06:07 10° NNE 03:11:15 89° WNW 03:16:20 10° SSW visible
30 Sep 3.9 02:29:13 10° NNE 02:34:11 50° E 02:39:07 10° S visible
01 Oct 5.0 01:52:36 10° NNE 01:56:56 27° E 02:01:14 10° SSE visible
01 Oct 3.1 03:31:18 10° N 03:36:18 60° WNW 03:41:18 10° SW visible
02 Oct 5.8 01:16:37 10° NE 01:19:29 15° E 01:22:21 10° ESE visible
02 Oct 3.2 02:54:16 10° NNE 02:59:23 77° ESE 03:04:28 10° S visible
03 Oct 4.3 02:17:26 10° NNE 02:22:16 41° E 02:27:03 10° SSE visible
04 Oct 5.3 01:40:57 10° NE 01:44:56 23° E 01:48:55 10° SE visible
04 Oct 3.0 03:19:24 10° NNE 03:24:29 72° WNW 03:29:32 10° SSW visible
